Flag for Italy Weather past 2 weeks in Bologna, Italy

59 °F

Drizzle. Broken clouds.

Feels Like: 59 °F
Forecast: 55 / 67 °F
Wind: 5 mph from West

Location: Bologna / Borgo Panigale

Current Time: Oct 10, 2015 at 6:19:20 PM

Latest Report: Oct 10, 2015 at 5:50 PM

Visibility: 5 mi

Pressure: 29.74 "Hg

Humidity: 94%

Dew point: 57 °F

Location of BolognaLocation

Historic Weather in Bologna — Graph


Bologna temperature yesterday

Maximum temperature yesterday: 70 °F (at 1:20 PM)
Minimum temperature yesterday: 55 °F (at 5:50 AM)
Average temperature yesterday: 62 °F

Past Weeks' High & Low Weather Summary

High75 °F (Sep 26, 12:50 PM)100% (Oct 2, 2:20 PM)30.33 "Hg (Oct 2, 2:20 PM)
Low52 °F (Oct 1, 3:20 AM)38% (Sep 28, 12:20 PM)29.74 "Hg (Oct 10, 4:20 PM)
Average62 °F77%30.09 "Hg
* Reported Sep 25 4:20 PM — Oct 10 4:50 PM, Bologna, Weather by CustomWeather, © 2015

Note: Actual official high and low records may vary slightly from our data, if they occured in-between our weather recording intervals... More about our weather records


Bologna weather history for previous 24 hours

Time TempWeatherWind HumidityBarometerVisibility
4:50 PM
Sat, Oct 10
59 °FDrizzle. Broken clouds.2 mph94%29.74 "Hg5 mi
4:20 PM61 °FDrizzle. Broken clouds.5 mph83%29.74 "Hg5 mi
3:50 PM61 °FDrizzle. Broken clouds.5 mph88%29.77 "Hg5 mi
3:20 PM61 °FLight rain. Broken clouds.5 mph94%29.77 "Hg5 mi
2:50 PM61 °FLight rain. Broken clouds.7 mph88%29.77 "Hg5 mi
2:20 PM61 °FLight rain. Partly sunny.9 mph88%29.77 "Hg5 mi
1:50 PM61 °FDrizzle. Partly sunny.8 mph94%29.80 "Hg5 mi
1:20 PM61 °FPartly sunny.6 mph94%29.80 "Hg5 mi
12:50 PM61 °FPartly sunny.5 mph88%29.83 "Hg5 mi
12:20 PM59 °FPartly sunny.5 mph94%29.83 "Hg5 mi
11:50 AM59 °FPartly sunny.5 mph94%29.86 "HgN/A
11:20 AM59 °FDrizzle. Broken clouds.3 mph88%29.86 "Hg5 mi
10:50 AM59 °FBroken clouds.3 mph88%29.86 "HgN/A
10:20 AM59 °FBroken clouds.5 mph88%29.86 "HgN/A
9:50 AM59 °FLight rain. Broken clouds.5 mph94%29.86 "HgN/A
9:20 AM57 °FLight rain. Broken clouds.3 mph94%29.86 "HgN/A
8:50 AM59 °FLight rain. Broken clouds.3 mph88%29.86 "HgN/A
8:20 AM59 °FPartly cloudy.3 mph88%29.86 "Hg5 mi
7:50 AM57 °FPassing clouds.5 mph94%29.89 "Hg5 mi
7:20 AM59 °FPassing clouds.5 mph88%29.89 "Hg5 mi
6:50 AM59 °FPassing clouds.3 mph88%29.89 "HgN/A
6:20 AM59 °FPassing clouds.3 mph88%29.89 "HgN/A
5:50 AM59 °FPassing clouds.2 mph88%29.89 "HgN/A
5:20 AM57 °FPartly cloudy.3 mph94%29.92 "HgN/A
4:50 AM59 °FPartly cloudy.2 mph88%29.92 "HgN/A
4:20 AM57 °FPassing clouds.3 mph94%29.92 "HgN/A
3:50 AM57 °FPassing clouds.2 mph94%29.95 "HgN/A
3:20 AM57 °FPassing clouds.2 mph94%29.95 "HgN/A
2:50 AM57 °FPartly cloudy.3 mph94%29.95 "HgN/A
2:20 AM59 °FPassing clouds.2 mph88%29.98 "HgN/A
1:50 AM59 °FPassing clouds.2 mph88%29.98 "HgN/A
1:20 AM59 °FPassing clouds.1 mph88%29.98 "HgN/A
12:50 AM59 °FPassing clouds.2 mph88%29.98 "HgN/A
12:20 AM59 °FPassing clouds.No wind88%29.98 "HgN/A
11:50 PM
Fri, Oct 9
59 °FPassing clouds.2 mph88%30.01 "HgN/A
10:50 PM59 °FClear.2 mph88%29.98 "Hg10 mi
10:20 PM61 °FClear.3 mph83%29.98 "Hg10 mi
9:50 PM59 °FClear.5 mph82%29.98 "Hg10 mi
9:20 PM61 °FClear.5 mph83%29.98 "Hg10 mi
8:50 PM63 °FClear.5 mph77%29.98 "Hg10 mi
8:20 PM63 °FClear.5 mph77%29.98 "Hg10 mi
7:50 PM64 °FClear.6 mph73%29.98 "Hg10 mi
7:20 PM64 °FPassing clouds.5 mph73%29.98 "HgN/A
6:50 PM66 °FPassing clouds.3 mph68%29.98 "HgN/A
6:20 PM66 °FPassing clouds.7 mph68%29.98 "HgN/A
Weather by CustomWeather, © 2015

See weather overviewHow to use our weather pages